TEVEL2-9

Last updated on Fri Dec 19 2025 00:03:12 GMT+0000 (Coordinated Universal Time)

1 63237U 25052AD 25352.44318141 .00015003 00000+0 59731-3 0 9994 2 63237 97.4148 243.7125 0009205 66.1968 294.0234 15.25305104 42413
UTC large
Height (km)
Speed (km/s)
/
Latitude / Longitude
Inclination (degrees)
Orbital Period (minutes)
Azimuth
Elevation
Range (km)
Doppler Factor

Next 0 passes for location: London (51.5072 / 0.1276)

Sorry there are no passes over London.